Regional Weather Roundup
Issued by NWS Austin/San Antonio, TX

Current Version | Previous Version | Text Only | Print | Product List | Glossary On
Versions: 1 2 3 4 5 6 7 8 9 10 11 12 13 14 15 16 17 18 19 20 21 22 23 24 25 26 27 28 29 30 31 32 33 34 35 36 37 38 39 40 41 42 43 44 45 46 47 48 49 50
358
ASUS44 KEWX 131110
RWREWX
SOUTH TEXAS REGIONAL WEATHER ROUNDUP
NATIONAL WEATHER SERVICE AUSTIN/SAN ANTONIO TX
600 AM CDT SUN JUN 13 2021

NOTE: "FAIR" INDICATED FEW OR NO CLOUDS BELOW 12,000 FEET WITH NO
SIGNIFICANT WEATHER AND/OR OBSTRUCTIONS TO VISIBILITY.

* - THESE STATIONS ARE NOT NWS OR FAA STATIONS...AND ARE NOT SUBJECT
    TO NWS AND FAA QUALITY CONTROL.

TXZ171-172-183>190-131200-
TEXAS HILL COUNTRY AND EDWARDS PLATEAU

CITY           SKY/WX    TMP DP  RH WIND       PRES   REMARKS
JUNCTION       CLEAR     71  67  87 CALM      30.03R
*LLANO         CLEAR     70  68  94 CALM      30.00R
BURNET         CLEAR     72  69  90 CALM      30.03R
*HORSESHOE BAY CLEAR     71  69  93 CALM      30.01R
*LAGO VISTA    PTCLDY    75  71  88 SW5       30.02R
*KERRVILLE     CLOUDY    72  69  91 CALM      30.02S
*FREDERICKSBRG CLEAR    N/A N/A N/A CALM      30.03R HAZE
*ROCKSPRINGS     N/A     70  70 100 MISG      30.09R
*BOERNE        PTCLDY    70  70 100 CALM      30.01R
*CASTROVILLE   CLOUDY    75  75  98 CALM      30.00R
HONDO          PTCLDY    70  68  93 N6        29.99R
*UVALDE        CLEAR     71  71 100 NE5       29.99S
DEL RIO        CLEAR     80  73  79 E8        29.95S
*LAUGHLIN AFB  CLEAR     76  72  88 E7        29.96S
*SPOFFORD      CLEAR     73  73 100 CALM      29.91R
*EAGLE PASS    CLEAR     75  70  83 E3        29.95S
CARRIZO SPRGS  CLEAR    N/A N/A N/A CALM      29.94S
$$

TXZ173-191>194-202-209-217>225-228-131200-
CENTRAL AND SOUTH CENTRAL TEXAS

CITY           SKY/WX    TMP DP  RH WIND       PRES   REMARKS
GEORGETOWN     CLEAR     71  69  93 CALM      30.01R
*TAYLOR        CLEAR     73 N/A N/A S5        29.98R
AUSTIN/BERGSTM PTCLDY    73  72  96 S3        29.98R
AUSTIN/MABRY   CLEAR     76  71  85 CALM      30.00R
*PFLUGERVILLE  CLOUDY    75  73  94 CALM      29.98R
SAN MARCOS     CLEAR     72  72 100 E3        30.00R
NEW BRAUNFELS  CLEAR     72  71  97 CALM      29.97R
*RANDOLPH AFB  CLEAR     75  74  97 SW3       29.97R
*SEGUIN        CLOUDY    74  73  98 E3        30.02R
SAN ANTONIO    PTCLDY    75  72  90 W3        29.99R
STINSON FIELD  PTCLDY    77  73  87 CALM      29.96R
*KELLY FIELD   MOCLDY    73  72  94 CALM      29.96R
*PLEASANTON    CLOUDY    76  75  95 SW5       29.97R
*KENEDY        CLOUDY    75  73  96 CALM      29.97R
*LA GRANGE     CLEAR     77  77 100 CALM      29.96R
*GIDDINGS      PTCLDY    76  74  93 W6        29.99R FOG
*GONZALES      CLOUDY    77  77  99 CALM      29.98R
$$

TXZ163>164-176>182-195>201-210>213-226-227-235-131200-
SOUTHEAST TEXAS

CITY           SKY/WX    TMP DP  RH WIND       PRES   REMARKS
COLLEGE STN    MOCLDY    78  74  87 CALM      29.97R
*BRYAN         PTCLDY    77  77 100 CALM      29.99R
*CALDWELL      CLOUDY    76  74  96 CALM      29.98R
*CROCKETT      CLEAR     73  73 100 CALM      29.96R
*BRENHAM       CLEAR     78  76  95 CALM      29.98R
HUNTSVILLE     CLEAR     79  79 100 SW5       29.96R
CONROE         PTCLDY    78  75  90 W6        29.97R
HOUSTON BUSH   MOCLDY    82  75  79 W8        29.95R
HOUSTON HOBBY  CLOUDY    81  75  82 W5        29.95R
*HOUSTON SW AP CLOUDY    78  76  95 CALM      29.96R
PEARLAND       CLOUDY    79  76  90 CALM      29.97R
HOUSTON HOOKS  CLOUDY    79  76  90 W5        29.96R
ELLINGTON FLD  MOCLDY    81  75  83 SW8       29.95R
SUGAR LAND     CLOUDY    80  76  87 NW3       29.95R
*HOUSTON EXEC    N/A     79  77  94 W3        29.97S
*CLEVELAND MUN CLOUDY    78  76  95 NW3       29.96R
*WHARTON       PTCLDY    75  74  94 CALM      29.96S
*COLUMBUS      FAIR      75  75  98 CALM      29.98R
*EAGLE LAKE    CLEAR     78  76  94 W3        29.96S
$$

TXZ214>216-236>238-131200-
THE UPPER TEXAS COAST

CITY           SKY/WX    TMP DP  RH WIND       PRES   REMARKS
*ORANGE        MOCLDY    78  76  93 CALM      29.96R
PORT ARTHUR    CLOUDY    76  76 100 CALM      29.94R
GALVESTON      MOCLDY    82  75  79 W6        29.95R
ANGLETON       MOCLDY    76  73  91 CALM      29.95R
*BAY CITY      NOT AVBL
PALACIOS       PTCLDY    77  76  96 CALM      29.95R
$$

TXZ229>234-239>247-131200-
TEXAS COASTAL BEND AND RIO GRANDE PLAINS

CITY           SKY/WX    TMP DP  RH WIND       PRES   REMARKS
VICTORIA       MOCLDY    75  73  93 N3        29.96R FOG
*BEEVILLE      FOG       75  75 100 CALM      29.95R VSB 1/2
ROCKPORT       CLEAR     75  74  96 CALM      29.94R
*PORT ARANSAS  MOCLDY    80  76  89 CALM      29.95R
*PORT LAVACA   PTCLDY    75  72  91 CALM      29.95R FOG
*INGLESIDE     CLEAR     77  75  95 N3        29.94R
CORPUS CHRISTI PTCLDY    73  73 100 CALM      29.94R
CORPUS NAS     CLEAR     78  75  90 SW3       29.93R
*ROBSTOWN      FOG       75  74  97 N3        29.95R VSB 1/2
ALICE          FOG       75  75 100 W5        29.94R VSB 1/4
KINGSVILLE NAS CLEAR     75  74  96 W3        29.93R
COTULLA        NOT AVBL
LAREDO         CLEAR     75  72  90 SE7       29.94R
$$

TXZ248>255-131200-
DEEP SOUTH TEXAS

CITY           SKY/WX    TMP DP  RH WIND       PRES   REMARKS
BROWNSVILLE    CLEAR     76  73  91 CALM      29.91S
PORT ISABEL    CLEAR     76  74  93 CALM      29.92R
HARLINGEN      FOG       73  73 100 CALM      29.91S VSB 1/4
*HEBBRONVILLE  HAZE      72  67  84 CALM      29.96R VSB 1/4
MCALLEN        CLEAR     75  73  93 SE5       29.92S
*WESLACO       MOCLDY    74  73  95 CALM      29.91F
FALFURRIAS     CLOUDY    71  71 100 CALM      29.93R VSB 1/2
EDINBURG       MOCLDY    72  72  99 CALM      29.93S FOG
*ZAPATA        CLEAR     75  73  93 CALM      29.95S
$$

TXZ213>215-236>238-242>244-246-247-251-254-255-131200-
CMAN STATIONS

STATION/POSITION TIME  TEMP    WIND        PRES    WAVE
                       AIR SEA DIR/SP/G            HT/PER
                 (UTC) (F)     (DEG/KT/KT) (MB)    (FT/S)
NORTH JETTY/GLS  1018   83 84  250/  8/  9 1012.4
EAGLE POINT      1024   80 87  250/  6/  9 1013.3
MORGANS POINT    1024   81 84  270/  5/  9 1013.8
MISSION/ARANSAS  1000   81     200/  5     1014.0
PORT O`CONNOR    1030   80 88  320/  2/  3 1013.7
PORT ARANSAS     1100   80 84  200/  6/  7 1013.6
MALAQUITE BEACH  1030   80     160/  9/ 10   N/A
BAFFIN BAY       1030   81 85  150/ 10/ 12 1012.5
PORT ISABEL      1030   79 82  170/  2/  3 1014.0
$$




USA.gov is the U.S. government's official web portal to all federal, state and local government web resources and services.